User: anonymous   Login
Location: Barrio Las Umbrías
(40.4173°N, 4.8685°W)
Time: 06:59:28
(UTC+00:00)
Language:

Okean 3 Rocket - Orbit

View from above orbital plane
View from above orbital plane
View from above satellite
View from above satellite

Ground track
Ground track

The orbit data is extracted from the following two-line orbital elements,

1 21398U 91039B   22339.80735054  .00000312  00000-0  37987-4 0  9990
2 21398  82.5217 166.3411 0022706 112.3456 248.0167 14.80022270678297
Epoch (UTC): 05 December 2022 19:22:35
Eccentricity: 0.0022706
inclination: 82.5217°
perigee height: 613 km
apogee height: 645 km
right ascension of ascending node: 166.3411°
argument of perigee: 112.3456°
revolutions per day: 14.80022270
mean anomaly at epoch: 248.0167°
orbit number at epoch: 67829

The dashed part of the orbit path shows where the satellite is in the earth's shadow,  

DLR